Change the Weather History Date:

Saturday, October 20, 2012

  Actual Average Record
Temperature  
Mean Temperature 72 °F -  
Max Temperature 88 °F 77 °F 89 °F (2004)
Min Temperature 57 °F 58 °F 45 °F (2011)
Cooling Degree Days 8    
Growing Degree Days 22 (Base 50)    
Moisture  
Dew Point 60 °F    
Average Humidity 62    
Maximum Humidity 81    
Minimum Humidity 44    
Precipitation  
Precipitation 0.00 in - - ()
Sea Level Pressure  
Sea Level Pressure 29.88 in    
Wind  
Wind Speed 8 mph (SSE)    
Max Wind Speed 18 mph    
Max Gust Speed 26 mph    
Visibility 10 miles    
Events      
Averages and records for this station are not official NWS values.
T = Trace of Precipitation, MM = Missing Value Source: NWS Daily Summary

Daily Weather History Graph

Daily Weather History Graph

Search for Another Location

Airport or City:

Trip Planner

Search our weather history database for the weather conditions in past years. The results will help you decide how hot, cold, wet, or windy it might be!

Date:

Astronomy

Oct. 20, 2012 Rise Set
Actual Time 7:37 AM CDT 6:53 PM CDT
Civil Twilight 7:12 AM CDT 7:17 PM CDT
Nautical Twilight 6:44 AM CDT 7:45 PM CDT
Astronomical Twilight 6:16 AM CDT 8:13 PM CDT
Moon 1:03 PM CDT (10/20) 11:50 PM CDT (10/20)
Length of Visible Light 12h 04m
Length of Day
11h 15m
Waxing Crescent, 34% of the Moon is Illuminated
Oct 20
Waxing Crescent
Oct 21
First Quarter
Oct 29
Full
Nov 6
Last Quarter
Nov 13
New

Hourly Weather History & Observations

Time (CDT) Temp. Heat Index Dew Point Humidity Pressure Visibility Wind Dir Wind Speed Gust Speed Precip Events Conditions
12:56 AM 62.1 °F - 39.9 °F 44% 29.93 in 10.0 mi SE 4.6 mph - N/A   Clear
1:56 AM 62.1 °F - 39.9 °F 44% 29.92 in 10.0 mi SSE 3.5 mph - N/A   Clear
2:56 AM 61.0 °F - 39.9 °F 46% 29.91 in 10.0 mi SE 4.6 mph - N/A   Clear
3:56 AM 60.1 °F - 42.1 °F 51% 29.90 in 10.0 mi Calm Calm - N/A   Clear
4:56 AM 60.1 °F - 43.0 °F 53% 29.90 in 10.0 mi SSE 3.5 mph - N/A   Clear
5:56 AM 57.9 °F - 44.1 °F 60% 29.90 in 10.0 mi SE 3.5 mph - N/A   Clear
6:56 AM 57.9 °F - 45.0 °F 62% 29.98 in 10.0 mi Calm Calm - N/A   Clear
7:56 AM 61.0 °F - 51.1 °F 70% 29.98 in 10.0 mi SSE 3.5 mph - N/A   Clear
8:28 AM 64.4 °F - 57.2 °F 77% 29.91 in 10.0 mi South 6.9 mph - N/A   Mostly Cloudy
8:56 AM 68.0 °F - 59.0 °F 73% 29.99 in 10.0 mi SSE 10.4 mph - N/A   Overcast
9:56 AM 72.0 °F - 63.0 °F 73% 29.99 in 10.0 mi South 9.2 mph - N/A   Overcast
10:56 AM 77.0 °F - 66.9 °F 71% 29.98 in 10.0 mi South 16.1 mph - N/A   Mostly Cloudy
11:06 AM 78.8 °F - 66.2 °F 65% 29.90 in 10.0 mi SSE 17.3 mph 26.5 mph N/A   Scattered Clouds
11:56 AM 81.0 °F 83.8 °F 68.0 °F 65% 29.96 in 10.0 mi South 18.4 mph 25.3 mph N/A   Mostly Cloudy
12:23 PM 82.4 °F 86.3 °F 69.8 °F 66% 29.88 in 10.0 mi South 17.3 mph 23.0 mph N/A   Overcast
12:56 PM 82.9 °F 85.8 °F 68.0 °F 60% 29.93 in 10.0 mi South 15.0 mph 25.3 mph N/A   Overcast
1:56 PM 86.0 °F 89.4 °F 68.0 °F 55% 29.90 in 10.0 mi South 16.1 mph 26.5 mph N/A   Scattered Clouds
2:56 PM 88.0 °F 91.4 °F 68.0 °F 51% 29.80 in 10.0 mi South 13.8 mph 24.2 mph N/A   Scattered Clouds
3:56 PM 88.0 °F 91.4 °F 68.0 °F 51% 29.78 in 10.0 mi SSE 17.3 mph - N/A   Partly Cloudy
4:56 PM 87.1 °F 91.3 °F 69.1 °F 55% 29.78 in 10.0 mi SSE 12.7 mph 21.9 mph N/A   Clear
5:56 PM 86.0 °F 89.4 °F 68.0 °F 55% 29.78 in 10.0 mi South 13.8 mph 23.0 mph N/A   Clear
6:56 PM 82.9 °F 85.8 °F 68.0 °F 60% 29.79 in 10.0 mi South 9.2 mph - N/A   Clear
7:56 PM 81.0 °F 83.8 °F 68.0 °F 65% 29.80 in 10.0 mi SSE 9.2 mph - N/A   Clear
8:56 PM 80.1 °F 82.7 °F 68.0 °F 67% 29.81 in 10.0 mi SSE 9.2 mph - N/A   Clear
9:56 PM 78.1 °F - 69.1 °F 74% 29.82 in 10.0 mi SE 11.5 mph - N/A   Clear
10:56 PM 79.0 °F - 72.0 °F 79% 29.83 in 10.0 mi SSE 10.4 mph 19.6 mph N/A   Clear
11:56 PM 78.1 °F - 72.0 °F 81% 29.82 in 10.0 mi SSE 12.7 mph 20.7 mph N/A   Mostly Cloudy